GPS BIIF-5 (39533 NORAD) Tracking and Keplerian Element Data

This shows tracking and keplerian element data for the satellite.

Feedback or suggestion? Click here.




ElementValue
Catalog39533
NameGPS BIIF-5
Epoch Orbit3955
Epoch Day198.37953361
Epoch Year2019
RAAN252.5849
Inclination53.8911
Eccentricity0.0042115
Argument of Perigee195.0361
Mean Anonmoly164.9262
Mean Motion2.00550769
Decay Rate2.5E-07
L11 39533U 14008A 19198.37953361 .00000025 00000-0 00000+0 0 9997
L22 39533 53.8911 252.5849 0042115 195.0361 164.9262 2.00550769 39551

Live tracking and technical data element details for GPS BIIF-5 (NORAD 39533). GPS BIIF-5 can be tracked NOW for your location showing map with azimuth and elevation plus other details from your city location.

Track the satellite on the map from your city or location and see movement details for azimuth, elevation, latitude, longitude, range, height, and movement on the map or in text.







IsCatalogInMostPopularTable: catalog: 39533, numindb: 296
Update: records affected: 1



GetName: 39533 GPS BIIF-5

Hit Count: updated at: Fri, 19 Jul 2019 08:28:49 GMT